[[{"header":{"parameterUnit":"m.s-1","parameterCategory":1,"la1":30.2991,"la2":30.254,"lo1":-89.0895,"lo2":-89.0444,"dy":0.0017,"dx":0.0017,"nx":28,"ny":28,"refTime":"2023-10-04T09:00:00:Z","depth":0,"parameterNumber":2,"parameterNumberName":"U-component_of_WINDS"},"data":[0,0,0,0,0,0,0,0,0,0,0,0,0,0,0,0,0,0,0,0,0,0,0,0,0,0,0,0,0,0,0,0,0,0,0,0,0,0,0,0,0,0,0,0,0,0,0,0,0,0,0,0,0,0,0,0,0,0,-4.0066,-4.0066,0,-4.0074,-4.0074,-4.0074,-3.9947,-3.9943,-3.994,-3.9936,-3.9944,-3.9947,-3.995,0,0,0,0,0,0,0,0,0,0,0,0,0,-3.9938,-3.9941,-4.0066,-4.0066,-4.0066,-4.0074,-4.0074,-4.0074,-3.9947,-3.9943,-3.9939,-3.9935,-3.9942,-3.9947,-3.9951,0,0,0,0,0,0,0,0,0,0,0,0,0,-3.9975,-3.9942,-4.0066,-4.0004,-3.9998,-4.0074,-4.0074,-4.0074,-3.9948,-3.9943,-3.9938,-3.9933,-3.9941,-3.9946,-3.9951,-4.0087,0,0,-3.9967,-3.9969,0,0,0,0,0,0,0,0,-3.9973,-3.998,-4.0013,-4.0008,-4.0002,-4.0004,-4.0032,-4.0079,-3.9949,-3.9967,-3.9936,-3.993,-3.9968,-3.997,-3.9983,-4.0087,-4.0087,-3.9967,-3.997,-3.9973,-3.9974,0,0,0,0,0,0,0,-3.9971,-3.9979,-4.0069,-4.0013,-4.0007,-3.9975,-3.9974,-4.004,-3.9996,-3.9965,-3.9956,-3.9959,-3.9964,-3.9979,-3.9983,-4.0088,-3.9967,-3.9972,-3.9975,-3.9977,-4.0302,-4.0307,0,0,0,0,0,0,-3.9977,-3.9977,-4.0069,-4.0069,-3.9974,-3.9981,-3.9981,-4.0009,-3.9995,-3.9988,-3.9963,-3.9953,-3.9973,-3.9977,-3.9982,-4.0139,-3.9973,-3.9977,-3.998,-4.0296,-4.0303,-4.0309,0,0,0,0,0,0,-3.9974,-3.9986,-4.0069,-4.0021,-4.0029,-3.9989,-4.0022,-4.0012,-4.0026,-3.9994,-3.9985,-3.9986,-3.9969,-3.9975,-4.0062,-4.0137,-3.998,-3.9984,-4.029,-4.0298,-4.0306,-4.0454,0,0,0,0,0,0,-3.9971,-3.9986,-4.0038,-4.0023,-4.0032,-4.0149,-4.0026,-4.0016,-4.0036,-4.0022,-4.0013,-4.0007,-3.9965,-4.0055,-4.0067,-4.0142,-3.9988,-4.0283,-4.0293,-4.0303,-4.0442,-4.0467,-4.0487,0,0,0,0,0,-3.9967,-4.0079,-4.0041,-4.0053,-4.0096,-4.0153,-4.0158,-4.0108,-4.0042,-4.0093,-4.0072,-4.0007,-4.0128,-4.0065,-4.0077,-4.0155,-4.0277,-4.029,-4.0302,-4.0432,-4.0462,-4.0487,0,0,0,0,0,0,-4.0103,-4.0076,-4.0033,-4.0144,-4.0152,-4.0132,-4.0194,-4.0141,-4.0168,-4.0154,-4.009,-4.0089,-4.0186,-4.0179,-4.0109,-4.0285,-4.0191,-4.0207,-4.0285,-4.0313,-4.0335,-4.0334,-3.9993,0,0,0,0,0,-4.0146,-4.0196,-4.0169,-4.0269,-4.0275,-4.0235,-4.0258,-4.0219,-4.0224,-4.0227,-4.0212,-4.0219,-4.0258,-4.0286,-4.032,-4.0441,-4.0437,-4.0501,-4.0523,-4.0542,-4.0556,-4.0618,-4.0646,-4.035,-4.035,-4.035,0,0,-4.0235,-4.0226,-4.0261,-4.0296,-4.0298,-4.0349,-4.0238,-4.0298,-4.0335,-4.0235,-4.0315,-4.0306,-4.031,-4.0414,-4.0459,-4.0411,-4.0637,-4.0558,-4.0573,-4.0576,-4.0634,-4.0662,-4.0687,-4.0358,-4.0357,-4.0355,0,0,-4.0423,-4.0422,-4.0504,-4.0509,-4.0512,-4.0485,-4.0505,-4.0493,-4.0482,-4.0562,-4.0488,-4.0532,-4.0601,-4.0606,-4.0618,-4.0809,-4.075,-4.0823,-4.0939,-4.1001,-4.1024,-4.1045,-4.1111,-4.1136,-4.0837,-4.0837,-4.0837,0,-4.0532,-4.0608,-4.0554,-4.0618,-4.0635,-4.0548,-4.063,-4.0637,-4.0652,-4.0665,-4.0612,-4.0697,-4.0693,-4.0797,-4.0844,-4.0857,-4.0877,-4.0822,-4.1025,-4.1045,-4.1063,-4.1126,-4.1152,-4.0846,-4.0845,-4.0844,-4.0843,0,-4.0742,-4.0796,-4.0862,-4.0879,-4.0903,-4.0977,-4.0933,-4.0965,-4.0924,-4.0902,-4.0984,-4.0977,-4.1008,-4.103,-4.099,-4.1128,-4.1098,-4.1037,-4.094,-4.1101,-4.1159,-4.1183,-4.0858,-4.0855,-4.0852,-4.085,0,0,-4.1014,-4.1001,-4.1026,-4.1032,-4.103,-4.107,-4.114,-4.117,-4.1198,-4.1212,-4.1267,-4.1328,-4.1271,-4.1285,-4.1245,-4.13,-4.145,-4.1231,-4.123,-4.127,-4.1599,-4.1645,-4.1674,-4.1411,-4.1416,-4.1419,-4.1599,0,-4.1196,-4.1313,-4.1267,-4.1388,-4.1436,-4.1354,-4.1414,-4.142,-4.1401,-4.1439,-4.1418,-4.1462,-4.1383,-4.1391,-4.1441,-4.1421,-4.1515,-4.1408,-4.1461,-4.1464,-4.1461,-4.1704,-4.1752,-4.1922,-4.1621,-4.1625,-4.1628,0,-4.1423,-4.1446,-4.1572,-4.1561,-4.158,-4.1635,-4.1659,-4.1697,-4.1701,-4.1683,-4.1699,-4.1648,-4.1714,-4.162,-4.171,-4.1639,-4.1658,-4.1652,-4.1657,-4.1658,-4.1554,-4.1711,-4.1975,-4.2,-4.1663,-4.166,-4.1658,0,-4.1607,-4.167,-4.1753,-4.1761,-4.1751,-4.1791,-4.1789,-4.1788,-4.1809,-4.183,-4.1843,-4.1872,-4.1888,-4.1911,-4.1869,-4.1805,-4.1965,-4.1867,-4.1951,-4.1952,-4.1987,-4.1985,-4.2256,-4.2003,-4.2002,-4.2002,-4.2001,0,-4.1813,-4.1893,-4.1835,-4.1887,-4.1974,-4.1919,-4.2007,-4.1995,-4.1995,-4.2042,-4.1973,-4.2019,-4.1961,-4.2,-4.1968,-4.2047,-4.2055,-4.2042,-4.2032,-4.2047,-4.2049,-4.2057,-4.2044,-4.2009,-4.2007,-4.2006,-4.2005,0,-4.2033,-4.1997,-4.2083,-4.2066,-4.2064,-4.2129,-4.2114,-4.216,-4.2137,-4.2198,-4.2209,-4.2173,-4.2216,-4.2176,-4.2217,-4.2195,-4.23,-4.2274,-4.2299,-4.2291,-4.2376,-4.2368,-4.2662,-4.2697,-4.2423,-4.2425,-4.2427,0,-4.2166,-4.2226,-4.2216,-4.2243,-4.2245,-4.2289,-4.231,-4.2259,-4.2284,-4.2293,-4.2338,-4.2376,-4.2403,-4.2476,-4.2453,-4.2484,-4.2457,-4.2557,-4.2461,-4.2474,-4.2456,-4.2453,-4.2458,-4.2577,-4.258,-4.2583,-4.2585,0,-4.2406,-4.2386,-4.2419,-4.2447,-4.2475,-4.2494,-4.2508,-4.2534,-4.2481,-4.2513,-4.2556,-4.2578,-4.262,-4.2657,-4.2682,-4.2678,-4.2623,-4.2616,-4.2636,-4.2652,-4.2663,-4.2656,-4.2351,-4.2609,-4.2606,-4.2604,-4.2603,-4.2602,-4.2585,-4.2634,-4.2635,-4.2674,-4.268,-4.2694,-4.2737,-4.2719,-4.2755,-4.2785,-4.2753,-4.2806,-4.2807,-4.2834,-4.2838,-4.2878,-4.2835,-4.2866,-4.2873,-4.2881,-4.2893,-4.2658,-4.2882,-4.2881,-4.2881,-4.288,-4.2879,0,-4.282,-4.2817,-4.2854,-4.2876,-4.2907,-4.2853,-4.2865,-4.2895,-4.2942,-4.2949,-4.2977,-4.3027,-4.3063,-4.3044,-4.3075,-4.3111,-4.3086,-4.3121,-4.3117,-4.3117,-4.293,-4.2908,-4.314,-4.314,-4.314,-4.314,-4.314,-4.314,-4.2946,-4.3025,-4.3005,-4.3086,-4.3082,-4.3133,-4.3145,-4.3158,-4.3163,-4.3221,-4.3251,-4.3238,-4.3234,-4.3265,-4.3296,-4.3289,-4.3303,-4.3346,-4.3331,-4.3156,-4.313,-4.3105,-4.3085,-4.335,-4.3351,-4.3514,-4.3515,-4.3517]},{"header":{"parameterUnit":"m.s-1","parameterCategory":1,"la1":30.2991,"la2":30.254,"lo1":-89.0895,"lo2":-89.0444,"dy":0.0017,"dx":0.0017,"nx":28,"ny":28,"refTime":"2023-10-04T09:00:00:Z","depth":0,"parameterNumber":3,"parameterNumberName":"V-component_of_WINDS"},"data":[0,0,0,0,0,0,0,0,0,0,0,0,0,0,0,0,0,0,0,0,0,0,0,0,0,0,0,0,0,0,0,0,0,0,0,0,0,0,0,0,0,0,0,0,0,0,0,0,0,0,0,0,0,0,0,0,0,0,1.9804,1.9804,0,1.9854,1.9855,1.9855,1.9855,1.9855,1.9854,1.9854,1.9902,1.9903,1.9905,0,0,0,0,0,0,0,0,0,0,0,0,0,1.9705,1.9707,1.9803,1.9804,1.9805,1.9854,1.9855,1.9855,1.9856,1.9855,1.9854,1.9853,1.9901,1.9903,1.9905,0,0,0,0,0,0,0,0,0,0,0,0,0,1.9751,1.9707,1.9803,1.9811,1.9812,1.9854,1.9855,1.9856,1.9856,1.9855,1.9854,1.9853,1.99,1.9903,1.9906,1.9942,0,0,1.9914,1.9915,0,0,0,0,0,0,0,0,1.9748,1.9754,1.9809,1.981,1.9812,1.9848,1.9837,1.9884,1.9856,1.9839,1.9854,1.9852,1.9884,1.9888,1.99,1.9944,1.9946,1.9915,1.9916,1.9917,1.9918,0,0,0,0,0,0,0,1.9745,1.9752,1.9823,1.981,1.9812,1.9811,1.9816,1.9846,1.9866,1.984,1.9841,1.9847,1.9885,1.9897,1.9901,1.9947,1.9914,1.9917,1.9919,1.992,2.0025,2.0026,0,0,0,0,0,0,1.9741,1.9749,1.9822,1.9825,1.9777,1.9813,1.982,1.9837,1.9866,1.9869,1.9848,1.9847,1.9893,1.9897,1.9902,1.9947,1.9917,1.992,1.9922,2.0024,2.0026,2.0027,0,0,0,0,0,0,1.9738,1.9747,1.982,1.9787,1.9797,1.9816,1.9836,1.9838,1.9851,1.9871,1.9874,1.9857,1.9892,1.9898,1.9933,1.9949,1.9921,1.9924,2.0023,2.0025,2.0026,2.0037,0,0,0,0,0,0,1.9736,1.9746,1.9761,1.9788,1.9798,1.985,1.9837,1.984,1.9856,1.9855,1.9881,1.9884,1.9892,1.9929,1.9936,1.9952,1.9926,2.0021,2.0024,2.0026,2.0036,2.0039,2.0042,0,0,0,0,0,1.9732,1.9761,1.9761,1.977,1.9817,1.9851,1.9857,1.9866,1.9857,1.9872,1.9885,1.9883,1.9947,1.9932,1.994,1.9958,2.002,2.0023,2.0026,2.0034,2.0039,2.0042,0,0,0,0,0,0,1.9733,1.9764,1.9765,1.9804,1.9825,1.9851,1.9869,1.9871,1.9893,1.9892,1.9902,1.9907,1.9941,1.9953,1.9937,1.9995,1.9982,1.9986,1.9986,1.9991,1.9994,1.999,1.9928,0,0,0,0,0,1.9739,1.9765,1.979,1.9821,1.9832,1.9849,1.9864,1.987,1.9892,1.99,1.9916,1.9936,1.9961,1.9976,2.0,2.0038,2.0043,2.0054,2.0058,2.006,2.0063,2.0085,2.009,2.0035,2.0035,2.0035,0,0,1.9749,1.9769,1.9784,1.9822,1.9839,1.9865,1.9856,1.9884,1.9903,1.9904,1.9937,1.995,1.9973,2.001,2.0026,2.002,2.008,2.0063,2.0065,2.0067,2.0088,2.0093,2.0098,2.0037,2.0036,2.0036,0,0,1.9781,1.9799,1.9827,1.9845,1.9872,1.9883,1.989,1.9916,1.9925,1.996,1.9961,1.9984,2.0026,2.0042,2.0056,2.0097,2.0095,2.0104,2.0121,2.0142,2.0146,2.015,2.0164,2.0169,2.0107,2.0107,2.0107,0,1.9789,1.983,1.9841,1.987,1.9886,1.989,1.9919,1.9935,1.9968,1.9979,1.9972,2.0026,2.0042,2.0082,2.0093,2.0104,2.0112,2.0101,2.0145,2.0149,2.0153,2.0166,2.0172,2.0108,2.0108,2.0108,2.0108,0,1.9839,1.9867,1.9887,1.992,1.9939,1.9967,1.9983,2.0001,2.0005,2.0017,2.0053,2.0072,2.01,2.0111,2.0115,2.0152,2.0148,2.0143,2.013,2.0159,2.0172,2.0177,2.011,2.0109,2.0109,2.0109,0,0,1.9872,1.9913,1.992,1.9935,1.9966,1.9987,2.0016,2.0045,2.006,2.0082,2.0106,2.0143,2.0139,2.0155,2.0161,2.018,2.0211,2.0173,2.0173,2.0179,2.0253,2.0256,2.0262,2.0211,2.0212,2.0213,2.0251,0,1.9906,1.9959,1.9971,2.0015,2.0041,2.0047,2.0072,2.0093,2.0105,2.0128,2.0141,2.0167,2.016,2.017,2.0189,2.0203,2.0226,2.02,2.0232,2.0233,2.0225,2.0269,2.0272,2.0307,2.0256,2.0257,2.0258,0,1.9954,1.9979,2.0027,2.0055,2.0066,2.0089,2.0117,2.014,2.0164,2.0171,2.019,2.0195,2.0225,2.0212,2.0252,2.0235,2.0249,2.0258,2.026,2.0262,2.0247,2.0272,2.0319,2.0324,2.0266,2.0265,2.0265,0,1.9972,2.0019,2.0053,2.0066,2.01,2.0116,2.0131,2.0154,2.0171,2.0196,2.0207,2.0234,2.0248,2.0269,2.0281,2.027,2.0321,2.0308,2.0328,2.0327,2.0337,2.0336,2.0386,2.0347,2.0347,2.0347,2.0347,0,2.0009,2.0038,2.0062,2.0083,2.0116,2.013,2.0161,2.0176,2.0197,2.0221,2.0227,2.0248,2.0263,2.0287,2.0297,2.0329,2.0336,2.0342,2.0344,2.0342,2.0341,2.035,2.0348,2.0348,2.0348,2.0348,2.0348,0,2.0035,2.0053,2.0091,2.0121,2.0129,2.0151,2.0176,2.0197,2.021,2.024,2.0248,2.0268,2.0297,2.0312,2.0347,2.0353,2.039,2.039,2.0382,2.0383,2.0401,2.0399,2.0458,2.0466,2.0422,2.0423,2.0423,0,2.0057,2.008,2.0113,2.013,2.0145,2.0173,2.0191,2.0206,2.0224,2.0254,2.0271,2.03,2.0324,2.037,2.0387,2.0415,2.0416,2.0435,2.0419,2.0416,2.0415,2.0414,2.0416,2.0437,2.0437,2.0438,2.0438,0,2.0095,2.0103,2.0129,2.0159,2.0181,2.0205,2.0229,2.0242,2.0261,2.0281,2.0311,2.033,2.0367,2.0396,2.0425,2.0439,2.0441,2.0443,2.0449,2.0445,2.0439,2.0443,2.0389,2.0441,2.0441,2.044,2.044,2.044,2.0119,2.014,2.0167,2.0196,2.0216,2.0238,2.026,2.0276,2.0302,2.0334,2.0342,2.0374,2.0398,2.0437,2.0453,2.0477,2.0473,2.0481,2.0483,2.0485,2.0486,2.0436,2.0483,2.0483,2.0482,2.0482,2.0482,0,2.0157,2.0175,2.0202,2.0236,2.0259,2.0262,2.0288,2.0307,2.0335,2.0359,2.0383,2.0418,2.0447,2.0467,2.0496,2.0512,2.0514,2.0519,2.0517,2.0521,2.0488,2.048,2.0517,2.0517,2.0517,2.0517,2.0517,2.0517,2.0179,2.0215,2.0226,2.0271,2.0289,2.0321,2.0336,2.0357,2.0375,2.0415,2.0439,2.0453,2.0475,2.0506,2.0532,2.0538,2.0548,2.0553,2.0558,2.0527,2.0523,2.0519,2.0512,2.0555,2.0555,2.0589,2.0589,2.0589]}]]